Home   Weather   Alexandria   Past weeks

Flag for USA Past Weather in Alexandria, Virginia, USA — Yesterday and Last 2 Weeks

Now
89 °F

Overcast.


Feels Like: 93 °F
Forecast: 71 / 92 °F
Wind: 12 mph from West

Location: Reagan National Airport

Current Time: Apr 29, 2017 at 5:15:12 pm

Latest Report: Apr 29, 2017 at 3:52 pm


Visibility: 10 mi

Pressure: 30.04 "Hg

Humidity: 50%

Dew Point: 68 °F

Location of AlexandriaLocation

Past Weather in Alexandria — Graph

°F

Alexandria Temperature Yesterday

Maximum temperature yesterday: 84 °F (at 2:52 pm)
Minimum temperature yesterday: 66 °F (at 5:52 am)
Average temperature yesterday: 73 °F

High & Low Weather Summary for the Past Weeks

 TemperatureHumidityPressure
High90 °F (Apr 29, 2:52 pm)100% (Apr 25, 7:52 am)30.45 "Hg (Apr 25, 7:52 am)
Low49 °F (Apr 23, 6:52 am)27% (Apr 16, 2:52 pm)29.70 "Hg (Apr 26, 2:52 am)
Average64 °F75%30.01 "Hg
* Reported Apr 14 2:52 pm — Apr 29 2:52 pm, Alexandria, Weather by CustomWeather, © 2017

Note: Actual official high and low records may vary slightly from our data, if they occured in-between our weather recording intervals... More about our weather records

Advertising

Alexandria Weather History for the Previous 24 Hours

Scroll right to see more
 ConditionsComfort  
Time TempWeatherWind HumidityBarometerVisibility
2:52 pm
Sat, Apr 29
90 °FPartly sunny.13 mph52%30.04 "Hg10 mi
1:52 pm88 °FPartly sunny.16 mph50%30.05 "Hg10 mi
12:52 pm86 °FPartly sunny.15 mph55%30.05 "Hg10 mi
11:52 am82 °FPartly sunny.13 mph63%30.07 "Hg10 mi
10:52 am81 °FMore clouds than sun.9 mph54%30.10 "Hg10 mi
9:52 am79 °FMostly cloudy.8 mph67%30.11 "Hg10 mi
8:52 am74 °FMostly cloudy.5 mph82%30.11 "Hg10 mi
7:52 am73 °FOvercast.7 mph88%30.07 "Hg10 mi
6:52 am71 °FOvercast.8 mph90%30.02 "Hg10 mi
5:52 am71 °FPassing clouds.13 mph90%29.99 "Hg10 mi
4:52 am73 °FMostly cloudy.7 mph84%30.05 "Hg10 mi
4:15 am74 °FMostly cloudy.8 mph82%30.08 "Hg10 mi
2:52 am70 °FOvercast.3 mph93%30.00 "Hg10 mi
1:52 am70 °FOvercast.3 mph93%30.01 "Hg10 mi
12:52 am71 °FPassing clouds.6 mph90%30.01 "Hg10 mi
11:52 pm
Fri, Apr 28
72 °FPartly cloudy.6 mph87%30.02 "Hg10 mi
10:52 pm72 °FPartly cloudy.8 mph84%30.01 "Hg10 mi
9:52 pm74 °FPassing clouds.3 mph71%30.03 "Hg10 mi
8:52 pm76 °FPassing clouds.8 mph64%30.03 "Hg10 mi
7:52 pm78 °FPartly sunny.14 mph62%30.00 "Hg10 mi
6:52 pm80 °FPartly sunny.9 mph60%30.00 "Hg10 mi
5:52 pm81 °FScattered clouds.13 mph54%30.01 "Hg10 mi
Weather by CustomWeather, © 2017

See weather overviewHow to use our weather pages